Regional Weather Roundup
Issued by NWS Spokane, WA

Home | Current Version | Previous Version | Text Only | Print | Product List | Glossary On
Versions: 1 2 3 4 5 6 7 8 9 10 11 12 13 14 15 16 17 18 19 20 21 22 23 24 25 26 27 28 29 30 31 32 33 34 35 36 37 38 39 40 41 42 43 44 45 46 47 48 49 50
000
NZUS01 KOTX 260925
RWROTX

Eastern Washington/Northern Idaho Roundup
National Weather Service, Spokane WA
200 AM PDT FRI AUG 26 2016

Note: "fair" indicated few or no clouds below 12,000 feet with no
significant weather and/or obstructions to visibility.

...Northeast Washington and Northern Idaho Panhandle...

CITY           SKY/WX    TMP DP  RH WIND       PRES   REMARKS
Spokane Intl   CLOUDY    67  39  35 NE5       30.03S
Spokane Downto FAIR      62  43  49 CALM      30.03S
Coeur d Alene  FAIR      61  43  51 NE10      30.02F
Deer Park      CLOUDY    60  39  45 N8        30.03S
Sandpoint      FAIR      64  43  45 NE9       30.06S
Bonners Ferry    N/A     57  46  67 N6        30.10F

...Southeast Washington and southern Idaho Panhandle...

CITY           SKY/WX    TMP DP  RH WIND       PRES   REMARKS
Walla Walla    FAIR      62  35  36 E3        29.96S
Pullman/Moscow FAIR      52  33  48 CALM      30.04F
Lewiston       FAIR      64  33  31 SE3       29.98S
Lowell           N/A     53  45  74 N3        30.05S
Grangeville    FAIR      50  32  50 CALM      30.04S

...Columbia Basin...

CITY           SKY/WX    TMP DP  RH WIND       PRES   REMARKS
Ephrata        FAIR      72  40  31 NW9       29.96F
Moses Lake     FAIR      63  43  48 MISG      29.97F
Pasco          FAIR      58  49  72 CALM      29.95S
Richland       FAIR      61  48  62 CALM      29.94S
Hermiston      FAIR      58  37  45 S5        29.94S
Pendleton      FAIR      59  36  42 SE12      29.97F

...East Slopes Cascades...

CITY           SKY/WX    TMP DP  RH WIND       PRES   REMARKS
The Dalles     FAIR      63  41  44 E6        29.94F
Yakima           N/A     61  43  51 W8        29.99S
Ellensburg     MOCLDY    61  44  53 CALM      30.02S
Stampede Pass  FAIR      60  44  55 CALM      30.13F
Wenatchee      CLOUDY    71  45  39 W10       29.98F
Omak           FAIR      65  41  41 CALM      30.00F
Chelan           N/A     68  45  42 MISG        N/A
Sunnyside        N/A     51  47  87 N5        29.96F

...Southern British Columbia...

CITY           SKY/WX    TMP DP  RH WIND       PRES   REMARKS
Penticton      PTCLDY    64  48  55 CALM      30.01S
Cranbrook      PTCLDY    48  48 100 S5        30.16F
Osoyoos          N/A     61  54  77 CALM        N/A
Creston          N/A     61  46  59 NE3         N/A

...Western Montana...

CITY           SKY/WX    TMP DP  RH WIND       PRES   REMARKS
Kalispell      FAIR      57  43  59 N15       30.12F
Libby            N/A     54  39  58 SE3       30.13F
Missoula       FAIR      50  34  54 NW5       30.13S

...Neighboring Cities...

CITY           SKY/WX    TMP DP  RH WIND       PRES   REMARKS
Seattle        FAIR      70  52  52 SE3       29.97S
Portland       FAIR      69  58  67 E5        29.92S
Boise          FAIR      60  32  34 S3        29.96F
Great Falls    CLOUDY    53  44  71 W6        30.19F
Calgary        MOCLDY    52  45  76 NW7       30.16S



USA.gov is the U.S. government's official web portal to all federal, state and local government web resources and services.